FW8412 Weather Reports


time (UTC)temp
C
wind
direction
speed
KPH
gust
KPH
rain 1hr
cm
rain 24hr
cm
rain mn
cm
humidity
%
barometer
mb
20260505111804 26 176 0.0 0.0 0.00 0.00 0.00 78 1018.3
20260505111300 26 146 1.6 1.6 0.00 0.00 0.00 80 1018.1
20260505110756 25 175 0.0 1.6 0.00 0.00 0.00 81 1018.3
20260505110254 25 142 1.6 1.6 0.00 0.00 0.00 81 1018.3
20260505101728 22 180 0.0 0.0 0.00 0.00 0.00 91 1017.8
20260505101224 22 167 0.0 0.0 0.00 0.00 0.00 91 1017.8
20260505100720 22 148 0.0 0.0 0.00 0.00 0.00 91 1017.7
20260505100217 22 132 1.6 1.6 0.00 0.00 0.00 91 1017.8
20260505095712 22 152 0.0 0.0 0.00 0.00 0.00 90 1017.8
20260505095211 22 177 0.0 0.0 0.00 0.00 0.00 90 1017.5
20260505094706 22 194 0.0 0.0 0.00 0.00 0.00 90 1017.5
20260505094203 23 189 0.0 0.0 0.00 0.00 0.00 89 1017.4
20260505093659 22 174 0.0 0.0 0.00 0.00 0.00 90 1017.4
20260505093157 22 172 0.0 0.0 0.00 0.00 0.00 90 1017.5
20260505092653 22 162 1.6 1.6 0.00 0.00 0.00 89 1017.6
20260505092152 22 164 0.0 1.6 0.00 0.00 0.00 90 1017.1
20260505091649 22 169 0.0 0.0 0.00 0.00 0.00 90 1017.1
20260505091147 22 182 1.6 1.6 0.00 0.00 0.00 90 1017.2
20260505090644 22 165 0.0 0.0 0.00 0.00 0.00 91 1017.2
20260505090142 22 117 1.6 1.6 0.00 0.00 0.00 90 1017.4
20260505085639 22 139 0.0 0.0 0.00 0.00 0.00 90 1017.4
20260505085137 23 172 0.0 0.0 0.00 0.00 0.00 90 1017.1
20260505084635 23 173 0.0 0.0 0.00 0.00 0.00 89 1016.9
20260505084133 23 178 0.0 0.0 0.00 0.00 0.00 90 1017.1
20260505083630 23 139 1.6 1.6 0.00 0.00 0.00 90 1017.1
20260505083127 23 124 1.6 1.6 0.00 0.00 0.00 89 1017.0
20260505082623 23 150 1.6 3.2 0.00 0.00 0.00 90 1017.0
20260505082120 23 144 0.0 1.6 0.00 0.00 0.00 89 1017.1
20260505081616 23 168 1.6 3.2 0.00 0.00 0.00 89 1017.2
20260505081114 23 167 0.0 1.6 0.00 0.00 0.00 90 1017.0
20260505080609 23 122 3.2 3.2 0.00 0.00 0.00 90 1017.2
20260505080106 23 156 1.6 1.6 0.00 0.00 0.00 89 1017.2
20260505075602 23 141 1.6 3.2 0.00 0.00 0.00 90 1017.3
20260505075059 23 136 1.6 3.2 0.00 0.00 0.00 89 1017.2
20260505074556 23 130 3.2 3.2 0.00 0.00 0.00 89 1017.2
20260505074053 23 185 0.0 0.0 0.00 0.00 0.00 89 1017.1
20260505073550 23 178 0.0 0.0 0.00 0.00 0.00 88 1017.3
20260505073049 23 183 0.0 0.0 0.00 0.00 0.00 88 1017.0
20260505072550 23 174 0.0 0.0 0.00 0.00 0.00 88 1017.1
20260505072047 23 176 0.0 0.0 0.00 0.00 0.00 88 1017.1
20260505071542 23 185 0.0 0.0 0.00 0.00 0.00 88 1017.2
20260505071040 23 185 0.0 0.0 0.00 0.00 0.00 88 1017.0
20260505070537 23 174 0.0 0.0 0.00 0.00 0.00 88 1016.9
20260505070033 23 191 0.0 0.0 0.00 0.00 0.00 88 1016.9
20260505065529 23 164 0.0 0.0 0.00 0.00 0.00 89 1017.1
20260505065026 23 164 0.0 0.0 0.00 0.00 0.00 89 1017.0
20260505064522 23 193 0.0 0.0 0.00 0.00 0.00 88 1017.3
20260505064021 23 184 0.0 0.0 0.00 0.00 0.00 88 1017.3
20260505063518 23 177 0.0 1.6 0.00 0.00 0.00 90 1017.1
20260505063014 23 167 1.6 1.6 0.00 0.00 0.00 90 1017.3
20260505062511 23 186 1.6 3.2 0.00 0.00 0.00 89 1017.1
20260505062008 23 129 3.2 4.8 0.00 0.00 0.00 89 1017.1
20260505061506 23 172 1.6 1.6 0.00 0.00 0.00 89 1017.3
20260505061003 23 166 3.2 3.2 0.00 0.00 0.00 88 1017.0
20260505060501 24 158 1.6 3.2 0.00 0.00 0.00 87 1017.5
20260505055956 25 148 0.0 0.0 0.00 0.00 0.00 86 1017.2
20260505055452 24 177 0.0 0.0 0.00 0.00 0.00 86 1017.5
20260505054949 23 170 0.0 1.6 0.00 0.00 0.00 87 1017.6
20260505054447 24 159 1.6 1.6 0.00 0.00 0.00 87 1017.5
20260505053945 24 142 0.0 0.0 0.00 0.00 0.00 87 1017.7
20260505053441 24 172 0.0 0.0 0.00 0.00 0.00 86 1017.7
20260505052938 24 153 1.6 1.6 0.00 0.00 0.00 87 1017.8
20260505052435 24 124 1.6 1.6 0.00 0.00 0.00 86 1017.8
20260505051932 24 173 0.0 1.6 0.00 0.00 0.00 86 1018.0
20260505051429 24 165 1.6 1.6 0.00 0.00 0.00 86 1018.0
20260505050927 24 195 0.0 0.0 0.00 0.00 0.00 86 1017.8
20260505050426 24 168 0.0 0.0 0.00 0.00 0.00 86 1018.1
20260505041353 25 161 1.6 1.6 0.00 0.00 0.00 84 1018.1
20260505040850 25 166 0.0 1.6 0.00 0.00 0.00 85 1018.2
20260505040348 25 179 3.2 3.2 0.00 0.00 0.00 84 1018.2
20260505035844 25 184 0.0 0.0 0.00 0.00 0.00 84 1018.3
20260505035340 25 168 1.6 1.6 0.00 0.00 0.00 84 1018.1
20260505034837 25 201 0.0 0.0 0.00 0.00 0.00 84 1018.7
20260505034334 25 178 0.0 0.0 0.00 0.00 0.00 84 1018.7
20260505033831 25 176 0.0 0.0 0.00 0.00 0.00 84 1018.7
20260505033328 25 189 0.0 0.0 0.00 0.00 0.00 84 1018.8
20260505032826 25 160 1.6 3.2 0.00 0.00 0.00 85 1018.8
20260505032322 25 169 1.6 1.6 0.00 0.00 0.00 83 1018.9
20260505031820 26 180 1.6 1.6 0.00 0.00 0.00 82 1018.8
20260505031316 26 180 0.0 0.0 0.00 0.00 0.00 83 1018.8
20260505030813 26 174 0.0 0.0 0.00 0.00 0.00 82 1019.0
20260505030310 26 181 0.0 0.0 0.00 0.00 0.00 82 1018.9
20260505025804 26 160 0.0 0.0 0.00 0.00 0.00 83 1018.8
20260505025304 26 174 0.0 0.0 0.00 0.00 0.00 82 1018.8
20260505024801 26 168 0.0 0.0 0.00 0.00 0.00 82 1018.8
20260505024258 26 175 1.6 1.6 0.00 0.00 0.00 83 1018.7
20260505023755 26 167 0.0 1.6 0.00 0.00 0.00 83 1018.7
20260505023252 26 161 1.6 1.6 0.00 0.00 0.00 82 1018.7
20260505022750 26 174 0.0 0.0 0.00 0.00 0.00 82 1018.6
20260505022246 26 174 0.0 0.0 0.00 0.00 0.00 82 1018.2
20260505021743 26 179 0.0 0.0 0.00 0.00 0.00 82 1018.6
20260505021240 26 111 1.6 1.6 0.00 0.00 0.00 82 1018.5
20260505020736 26 143 1.6 1.6 0.00 0.00 0.00 81 1018.5
20260505020231 26 189 0.0 0.0 0.00 0.00 0.00 80 1018.3
20260505015729 26 178 0.0 0.0 0.00 0.00 0.00 80 1018.1
20260505015226 26 173 0.0 0.0 0.00 0.00 0.00 81 1018.2
20260505014723 27 150 0.0 0.0 0.00 0.00 0.00 79 1018.2
20260505014220 27 176 0.0 0.0 0.00 0.00 0.00 79 1018.2
20260505013716 26 192 0.0 0.0 0.00 0.00 0.00 79 1018.2
20260505013213 26 186 0.0 0.0 0.00 0.00 0.00 79 1018.0
20260505012712 26 192 0.0 0.0 0.00 0.00 0.00 80 1018.2
20260505012209 26 216 0.0 0.0 0.00 0.00 0.00 80 1017.9
20260505011704 26 200 0.0 0.0 0.00 0.00 0.00 80 1018.0
20260505011202 26 195 0.0 0.0 0.00 0.00 0.00 80 1018.0
20260505010657 26 202 0.0 0.0 0.00 0.00 0.00 81 1017.7
20260505010154 26 211 0.0 0.0 0.00 0.00 0.00 80 1017.9
20260505005650 27 217 1.6 1.6 0.00 0.00 0.00 79 1017.8
20260505005147 27 188 0.0 0.0 0.00 0.00 0.00 78 1017.5
20260505004644 27 200 1.6 3.2 0.00 0.00 0.00 76 1017.6
20260505004141 27 191 0.0 0.0 0.00 0.00 0.00 76 1017.5
20260505003638 27 183 0.0 0.0 0.00 0.00 0.00 76 1017.5
20260505003136 27 203 1.6 1.6 0.00 0.00 0.00 76 1017.5
20260505002631 27 184 0.0 0.0 0.00 0.00 0.00 75 1017.2
20260505002130 27 189 0.0 0.0 0.00 0.00 0.00 75 1017.0
20260505001627 27 196 0.0 0.0 0.00 0.00 0.00 75 1017.2
20260505001124 28 193 1.6 1.6 0.00 0.00 0.00 75 1017.2
20260505000621 27 165 3.2 3.2 0.00 0.00 0.00 74 1017.4
20260505000119 28 172 3.2 3.2 0.00 0.00 0.00 74 1017.3
20260504235615 28 165 1.6 1.6 0.00 0.00 0.00 74 1017.1
20260504235112 28 208 1.6 1.6 0.00 0.00 0.00 73 1017.1
20260504234609 28 207 4.8 4.8 0.00 0.00 0.00 73 1017.0
20260504234106 28 213 0.0 0.0 0.00 0.00 0.00 72 1016.9
20260504233601 28 183 1.6 1.6 0.00 0.00 0.00 72 1016.9
20260504233058 28 162 1.6 3.2 0.00 0.00 0.00 72 1016.9
20260504232555 28 184 4.8 4.8 0.00 0.00 0.00 71 1017.2
20260504232053 28 183 1.6 3.2 0.00 0.00 0.00 71 1016.9
20260504231549 28 120 4.8 4.8 0.00 0.00 0.00 71 1016.7
20260504231045 29 178 1.6 1.6 0.00 0.00 0.00 69 1016.8
20260504230541 29 131 3.2 3.2 0.00 0.00 0.00 70 1016.7
20260504230041 29 152 4.8 4.8 0.00 0.00 0.00 69 1016.9
20260504225537 29 166 1.6 1.6 0.00 0.00 0.00 69 1016.5
20260504225034 30 206 1.6 3.2 0.00 0.00 0.00 67 1016.4
20260504224531 30 176 1.6 3.2 0.00 0.00 0.00 67 1016.4
20260504224028 30 154 4.8 4.8 0.00 0.00 0.00 65 1016.3
20260504223525 30 208 1.6 3.2 0.00 0.00 0.00 65 1016.3
20260504223021 31 199 1.6 1.6 0.00 0.00 0.00 64 1016.3
20260504222518 31 206 1.6 3.2 0.00 0.00 0.00 63 1016.1
20260504222015 31 221 0.0 0.0 0.00 0.00 0.00 63 1016.0
20260504221512 31 181 3.2 3.2 0.00 0.00 0.00 62 1015.9
20260504221009 31 228 0.0 1.6 0.00 0.00 0.00 61 1015.9
20260504220505 31 219 0.0 0.0 0.00 0.00 0.00 59 1015.7
20260504220003 31 179 3.2 3.2 0.00 0.00 0.00 59 1015.8
20260504215459 31 157 0.0 0.0 0.00 0.00 0.00 58 1015.7
20260504214956 31 193 0.0 0.0 0.00 0.00 0.00 58 1015.7
20260504214452 31 213 1.6 1.6 0.00 0.00 0.00 60 1015.6
20260504213949 31 252 1.6 1.6 0.00 0.00 0.00 59 1015.8
20260504213445 31 153 0.0 1.6 0.00 0.00 0.00 60 1015.6
20260504212943 31 173 1.6 1.6 0.00 0.00 0.00 59 1015.5
20260504212438 32 157 3.2 3.2 0.00 0.00 0.00 54 1015.6
20260504211936 33 190 4.8 8.0 0.00 0.00 0.00 50 1015.5
20260504211432 33 138 3.2 3.2 0.00 0.00 0.00 51 1015.6
20260504210930 33 144 6.4 9.7 0.00 0.00 0.00 50 1015.5
20260504210426 33 194 0.0 0.0 0.00 0.00 0.00 51 1015.6
20260504205924 33 141 4.8 9.7 0.00 0.00 0.00 50 1015.4
20260504205421 33 149 8.0 9.7 0.00 0.00 0.00 51 1015.4
20260504204919 33 166 4.8 9.7 0.00 0.00 0.00 51 1015.3
20260504204417 33 176 3.2 3.2 0.00 0.00 0.00 50 1015.2
20260504203916 33 226 6.4 8.0 0.00 0.00 0.00 50 1015.4
20260504203414 33 198 0.0 0.0 0.00 0.00 0.00 51 1015.4
20260504202909 33 217 4.8 4.8 0.00 0.00 0.00 49 1015.4
20260504202406 34 211 4.8 4.8 0.00 0.00 0.00 48 1015.3
20260504201903 33 194 3.2 3.2 0.00 0.00 0.00 49 1015.0
20260504201400 34 147 8.0 11.3 0.00 0.00 0.00 49 1015.2
20260504200857 35 148 4.8 8.0 0.00 0.00 0.00 47 1015.1
20260504200354 34 179 3.2 4.8 0.00 0.00 0.00 49 1015.0
20260504195851 34 155 4.8 4.8 0.00 0.00 0.00 48 1014.9
20260504195346 34 109 4.8 8.0 0.00 0.00 0.00 48 1014.9
20260504194843 34 260 3.2 3.2 0.00 0.00 0.00 49 1014.8
20260504194339 33 143 0.0 1.6 0.00 0.00 0.00 49 1015.2
20260504193835 34 205 3.2 3.2 0.00 0.00 0.00 47 1015.2
20260504193333 35 183 6.4 9.7 0.00 0.00 0.00 46 1015.2
20260504192831 34 186 4.8 8.0 0.00 0.00 0.00 50 1014.9
20260504192329 33 81 1.6 3.2 0.00 0.00 0.00 60 1015.3
20260504191827 33 60 3.2 3.2 0.00 0.00 0.00 59 1015.3
20260504191324 33 5 4.8 9.7 0.00 0.00 0.00 61 1015.3
20260504190820 33 62 6.4 9.7 0.00 0.00 0.00 63 1015.2
20260504190316 33 98 8.0 11.3 0.00 0.00 0.00 63 1015.4
20260504185813 33 189 1.6 1.6 0.00 0.00 0.00 63 1015.3
20260504185310 33 68 8.0 9.7 0.00 0.00 0.00 62 1015.4
20260504184806 32 85 3.2 3.2 0.00 0.00 0.00 64 1015.4
20260504184302 32 59 3.2 3.2 0.00 0.00 0.00 66 1015.5
20260504183757 32 71 4.8 8.0 0.00 0.00 0.00 64 1015.5
20260504183254 32 81 8.0 11.3 0.00 0.00 0.00 66 1015.6
20260504182753 32 101 8.0 12.9 0.00 0.00 0.00 64 1015.8
20260504182249 32 105 6.4 9.7 0.00 0.00 0.00 65 1015.7
20260504181747 32 65 3.2 4.8 0.00 0.00 0.00 64 1015.9
20260504181244 33 94 11.3 14.5 0.00 0.00 0.00 60 1015.7
20260504180743 33 43 6.4 8.0 0.00 0.00 0.00 61 1016.1
20260504180242 34 21 6.4 9.7 0.00 0.00 0.00 58 1016.0
20260504175739 35 113 4.8 8.0 0.00 0.00 0.00 43 1016.1
20260504175235 35 267 0.0 0.0 0.00 0.00 0.00 42 1016.2
20260504174733 35 287 3.2 3.2 0.00 0.00 0.00 44 1016.1
20260504174231 34 232 6.4 8.0 0.00 0.00 0.00 45 1016.3
20260504173727 34 175 1.6 3.2 0.00 0.00 0.00 44 1016.2
20260504173224 34 97 14.5 17.7 0.00 0.00 0.00 45 1016.5
20260504172721 34 237 3.2 4.8 0.00 0.00 0.00 46 1016.1
20260504172217 35 214 8.0 12.9 0.00 0.00 0.00 45 1016.2
20260504171714 33 168 6.4 9.7 0.00 0.00 0.00 47 1016.7
20260504171211 33 93 6.4 9.7 0.00 0.00 0.00 48 1016.6
20260504170708 32 271 1.6 3.2 0.00 0.00 0.00 51 1016.3
20260504170206 33 83 1.6 3.2 0.00 0.00 0.00 51 1016.5
20260504160124 32 24 1.6 1.6 0.00 0.00 0.00 61 1017.1
20260504151051 32 145 3.2 8.0 0.00 0.00 0.00 58 1017.8
20260504150548 31 102 6.4 9.7 0.00 0.00 0.00 58 1018.0
20260504141014 31 102 9.7 14.5 0.00 0.00 0.00 63 1018.2
20260504140510 30 121 16.1 20.9 0.00 0.00 0.00 64 1018.0
20260504130435 29 131 6.4 9.7 0.00 0.00 0.00 71 1018.3